Tracking 30061 objects as of 8-Dec-2024
HD Live streaming from Space Station
objects crossing your sky now

DELTA 1 DEB

Track DELTA 1 DEB now!
10-day predictions


NORAD ID: 10663
Int'l Code: 1976-077Z
Perigee: 841.8 km
Apogee: 1,010.0 km
Inclination: 100.6 °
Period: 103.4 minutes
Semi major axis: 7296 km
RCS: 0.0545 m2 (small)
Launch date: July 29, 1976
Source: United States (US)
Launch site: AIR FORCE WESTERN TEST RANGE (AFWTR)

Note: This is SATELLITE DEBRIS
Your satellite tracking list
Your tracking list is empty




NASA's NSSDC Master Catalog

Two Line Element Set (TLE):
1 10663U 76077Z   24342.34791281  .00017134  00000-0  12538-1 0  9999
2 10663 100.5911 267.2753 0115239 207.3988 152.1060 13.92816181353001
Source of the keplerian elements: AFSPC